{"data":{"norad_id":57783,"epoch":"2026-05-25T05:02:28.497984Z","epoch_age_seconds":63638,"freshness":"FRESH","line1":"1 57783U 23134N   26145.21005206  .00002835  00000+0  11250-3 0  9996","line2":"2 57783  43.0032 125.4026 0001403 271.7798  88.2893 15.27578876151172","mean_motion":15.27578876,"eccentricity":0.0001403,"inclination_deg":43.0032,"raan_deg":125.4026,"arg_perigee_deg":271.7798,"mean_anomaly_deg":88.2893,"bstar":0.0001125,"rev_number":15117,"period_min":94.266818075586,"perigee_km":482.0898368206,"apogee_km":484.01508658355,"semimajor_km":6861.1894617021,"source":"CELESTRAK","updated_at":"2026-05-25T13:38:18.406356Z"}}